Погода в Горьковском

Россия / Омская область     55°22′18″N   74°21′53″E
темп.,
°C
ветер,
м/с
пор.,
м/с
влажн.,
%
обл.,
%
осадки,
мм/ч
давл.,
гПа
погр.,
м
23 мая, пн
пн2300:00+9юз8137213 0.4 1007908
03:00+8ююз613705 0.0 1011477
06:00+9юз7146544 0.0 1013540
09:00+13юз811514 0.0 10151381
12:00+16юз81238100 0.0 10152444
15:00+18ююз81436100 0.0 10142388
18:00+17ююз81438100 0.0 10141183
21:00+18ю61445100 0.0 1014679
24 мая, вт
вт2400:00+15ю4105778 0.0 1015189
03:00+15ю5115789 0.0 1015257
06:00+14ю4116759 0.0 1016238
09:00+21юз584587 0.0 1017577
12:00+25ююз463596 0.0 10172073
15:00+25ююз343589 0.0 10162306
18:00+26ююз343131 0.0 10162543
21:00+21ююв224535 0.0 101611
25 мая, ср
ср2500:00+18ююв33505 0.0 101719
03:00+16ююв33515 0.0 101727
06:00+16ююв22540 0.0 101829
09:00+22юв23380 0.0 1018387
12:00+26вюв45311 0.0 10182106
15:00+27в56309 0.0 10162247
18:00+27в4634100 0.0 10162438
21:00+21вюв3354100 0.0 101640
26 мая, чт
чт2600:00+19вюв3452100 0.0 101652
03:00+17вюв4559100 0.0 101565
06:00+17вюв49645 0.0 1015169
09:00+23вюв7124788 0.0 1014800
12:00+27вюв912352 0.0 10122089
15:00+28вюв910300 0.0 10102459
18:00+28вюв811370 0.0 10082041
21:00+22вюв817490 0.0 1007505
27 мая, пт
пт2700:00+19юв41066100 1.1 1008216
03:00+16юв5128188 0.4 1008269
06:00+15зсз5991100 0.9 1009409
09:00+16з667585 0.0 1010720
12:00+16зсз6668100 0.0 1012988
15:00+19зсз5651100 0.0 10121606
18:00+18зсз67425 0.0 10121801
21:00+14зсз49580 0.0 1014238